Regional Weather Roundup
Issued by NWS State College, PA

Home | Current Version | Previous Version | Graphics & Text | Print | Product List | Glossary Off
Versions: 1 2 3 4 5 6 7 8 9 10 11 12 13 14 15 16 17 18 19 20 21 22 23 24 25 26 27 28 29 30 31 32 33 34 35 36 37 38 39 40 41 42 43 44 45 46 47 48 49 50

000
ASUS41 KCTP 221803
RWRCTP

REGIONAL WEATHER ROUNDUP
NATIONAL WEATHER SERVICE STATE COLLEGE PA
200 PM EDT WED OCT 22 2014

Note: "fair" indicates few or no clouds below 12,000 feet with no
significant weather and/or obstructions to visibility.

* = STATION THAT DOES NOT REPORT PRECIPITATION /E.G. RAIN...SNOW...ETC/
    THUNDER OR FOG.

PAZ002>004-007>009-013>016-020>023-029>032-221900-
WESTERN PENNSYLVANIA

CITY           SKY/WX    TMP DP  RH WIND       PRES   REMARKS
ERIE           CLOUDY    48  40  73 N9        30.23F
MEADVILLE      CLOUDY    45  40  82 N8        30.20F
FRANKLIN*      CLOUDY    45  39  81 N7        30.20R
NEW CASTLE       N/A     48  42  80 N8        30.20F
BEAVER COUNTY  CLOUDY    46  41  81 N12G21    30.18F
BUTLER*        CLOUDY    48  39  71 N6G16     30.19S
PITTSBURGH INT CLOUDY    49  42  77 N14       30.16F
PITTSBURGH     CLOUDY    49  40  71 N12       30.14S
INDIANA*       CLOUDY    46  43  87 N8        30.16S
LATROBE        CLOUDY   N/A N/A N/A N5        30.14F
WASHINGTON CO* CLOUDY    48  41  76 N12G17    30.18S
$$

PAZ004>006-010>012-017>019-024>028-033>037-041-042-045-046-049>053-221900-
CENTRAL PENNSYLVANIA

CITY           SKY/WX    TMP DP  RH WIND       PRES   REMARKS
BRADFORD       CLOUDY    42  40  92 N12       30.15R FOG
DUBOIS         CLOUDY    45  41  86 N12G20    30.12S
CLEARFIELD     CLOUDY    49  42  77 N14       30.10S
JOHNSTOWN      CLOUDY    44  41  89 NW12      30.09R
ALTOONA        CLOUDY    50  44  80 N15       30.05F
STATE COLLEGE  CLOUDY    52  43  71 NE14G23   30.06S
WILLIAMSPORT   CLOUDY    53  43  68 N8        30.04F
SELINSGROVE    CLOUDY    55  45  68 N9G21     30.02F
FT INDIANTOWN  CLOUDY    54  54 100 N13G26    29.97R
CAPITAL CITY   CLOUDY    54  48  80 N14G21    29.97F
HARRISBURG     CLOUDY    54  48  80 N12G22    29.96F
YORK           LGT RAIN  53  49  86 N14G21    29.95F
$$

PAZ038>040-043-044-047-048-054-055-060>062-067>071-221900-
EASTERN PENNSYLVANIA

CITY           SKY/WX    TMP DP  RH WIND       PRES   REMARKS
SCRANTON       CLOUDY    54  46  74 N13       29.98F
MOUNT POCONO   CLOUDY    49  45  86 N12G23    29.95F
ALLENTOWN      CLOUDY    56  48  74 NE12G24   29.92F
QUAKERTOWN*    CLOUDY    55  48  76 N13G22    29.91F
READING        CLOUDY    57  48  72 N12       29.91F
LANCASTER      CLOUDY    54  49  83 N16       29.93F
COATESVILLE    CLOUDY    54  50  87 N10G16    29.90F
POTTSTOWN      CLOUDY    55  49  80 N14G25    29.91F
BLUE BELL      CLOUDY    55  52  88 N8G18     29.87F
DOYLESTOWN     CLOUDY    53  50  89 N16G23    29.87F
WILLOW GROVE   NOT AVBL
NORTH PHILA    LGT RAIN  57  50  77 N17G24    29.87F
PHILADELPHIA   LGT RAIN  55  51  86 N16G22    29.86F
$$



USA.gov is the U.S. government's official web portal to all federal, state and local government web resources and services.